Location: Fort Wayne
(41.1310°N, 85.1290°W)
Time: 04:33:52
(UTC-04:00)

Cosmos 1980 - Visible Passes

Search period start: 02 September 2015 00:00
Search period end: 12 September 2015 00:00
Orbit: 838 x 849 km, 71.0° (Epoch: 31 August)

Date Brightness Start Highest point End Pass type
(mag) Time Alt. Az. Time Alt. Az. Time Alt. Az.
02 Sep 6.0 02:42:42 16° ENE 02:42:42 16° ENE 02:44:31 10° NE visible
02 Sep 4.0 04:24:34 54° NW 04:24:34 54° NW 04:29:40 10° NNE visible
02 Sep 5.9 06:09:07 10° NW 06:09:37 10° NW 06:09:49 10° NW visible
03 Sep 6.2 02:28:45 14° ENE 02:28:45 14° ENE 02:29:54 10° NE visible
03 Sep 4.2 04:10:36 50° NNW 04:10:36 50° NNW 04:15:11 10° NNE visible
03 Sep 5.9 05:53:51 10° NW 05:55:03 10° NW 05:55:58 10° NNW visible
04 Sep 6.3 02:14:45 12° ENE 02:14:45 12° ENE 02:15:18 10° ENE visible
04 Sep 4.5 03:56:36 45° N 03:56:36 45° N 04:00:41 10° NNE visible
04 Sep 5.8 05:38:53 10° WNW 05:40:29 11° NW 05:41:48 10° NNW visible
05 Sep 4.8 03:42:35 39° N 03:42:35 39° N 03:46:11 10° NNE visible
05 Sep 5.8 05:24:26 11° WNW 05:25:56 11° NW 05:27:33 10° NNW visible
06 Sep 5.1 03:28:32 34° N 03:28:32 34° N 03:31:42 10° NNE visible
06 Sep 5.8 05:10:23 11° NW 05:11:22 12° NW 05:13:15 10° NNW visible
07 Sep 5.4 03:14:28 29° NNE 03:14:28 29° NNE 03:17:12 10° NNE visible
07 Sep 5.8 04:56:19 12° NW 04:56:48 12° NW 04:58:55 10° NNW visible
08 Sep 5.6 03:00:22 25° NNE 03:00:22 25° NNE 03:02:41 10° NNE visible
08 Sep 5.9 04:42:13 13° NW 04:42:14 13° NW 04:44:35 10° NNW visible
09 Sep 5.8 02:46:14 22° NNE 02:46:14 22° NNE 02:48:11 10° NNE visible
09 Sep 5.9 04:28:05 13° NW 04:28:05 13° NW 04:30:12 10° NNW visible
10 Sep 6.0 02:32:06 19° NNE 02:32:06 19° NNE 02:33:41 10° NNE visible
10 Sep 6.0 04:13:57 13° NW 04:13:57 13° NW 04:15:49 10° NNW visible
11 Sep 6.2 02:17:56 17° NNE 02:17:56 17° NNE 02:19:10 10° NNE visible
11 Sep 6.0 03:59:47 13° NNW 03:59:47 13° NNW 04:01:26 10° NNW visible
